Hays, KS

4:19 AM CDT on August 18, 2017 (GMT -0500)
Hays Regional

Weather History for KHYS - August, 2013

Change the Weather History Date:

Friday, August 2, 2013

  Actual Average Record
Temperature  
Mean Temperature 78 °F -  
Max Temperature 91 °F 87 °F 107 °F (2010)
Min Temperature 66 °F 64 °F 55 °F (2014)
Cooling Degree Days 14    
Growing Degree Days 28 (Base 50)    
Moisture  
Dew Point 68 °F    
Average Humidity 71    
Maximum Humidity 89    
Minimum Humidity 55    
Precipitation  
Precipitation 0.00 in - - ()
Sea Level Pressure  
Sea Level Pressure 29.89 in    
Wind  
Wind Speed 11 mph (ESE)    
Max Wind Speed 17 mph    
Max Gust Speed 22 mph    
Visibility 10 miles    
Events      
Averages and records for this station are not official NWS values.
T = Trace of Precipitation, MM = Missing Value Source: NWS Daily Summary

Daily Weather History Graph

Daily Weather History Graph

Search for Another Location

Airport or City:

Trip Planner

Search our weather history database for the weather conditions in past years. The results will help you decide how hot, cold, wet, or windy it might be!

Date:

Astronomy

Aug. 02, 2013 Rise Set
Actual Time 6:39 AM CDT 8:46 PM CDT
Civil Twilight 6:09 AM CDT 9:16 PM CDT
Nautical Twilight 5:33 AM CDT 9:52 PM CDT
Astronomical Twilight 4:54 AM CDT 10:31 PM CDT
Moon 3:01 AM CDT (8/2) 5:45 PM CDT (8/2)
Length of Visible Light 15h 06m
Length of Day
14h 07m
Waning Crescent, 15% of the Moon is Illuminated
Aug 2
Waning Crescent
Aug 6
New
Aug 14
First Quarter
Aug 20
Full
Aug 28
Last Quarter

Hourly Weather History & Observations

Time (CDT) Temp. Heat Index Dew Point Humidity Pressure Visibility Wind Dir Wind Speed Gust Speed Precip Events Conditions
12:15 AM 75.2 °F - 66.2 °F 73% 29.85 in 10.0 mi SSW 17.3 mph - N/A   Scattered Clouds
12:35 AM 75.2 °F - 66.2 °F 73% 29.87 in 10.0 mi SSW 15.0 mph 21.9 mph N/A   Partly Cloudy
12:55 AM 77.0 °F - 66.2 °F 69% 29.88 in 10.0 mi SW 10.4 mph - N/A   Clear
1:15 AM 77.0 °F - 66.2 °F 69% 29.89 in 10.0 mi SW 10.4 mph - N/A   Partly Cloudy
1:35 AM 77.0 °F - 66.2 °F 69% 29.89 in 10.0 mi SSW 11.5 mph - N/A   Mostly Cloudy
1:55 AM 75.2 °F - 66.2 °F 73% 29.90 in 10.0 mi SSW 8.1 mph - N/A   Mostly Cloudy
2:15 AM 75.2 °F - 66.2 °F 73% 29.88 in 10.0 mi SSW 11.5 mph - N/A   Partly Cloudy
2:35 AM 75.2 °F - 66.2 °F 73% 29.95 in 10.0 mi NNE 13.8 mph - N/A   Partly Cloudy
2:55 AM 75.2 °F - 66.2 °F 73% 29.96 in 10.0 mi NNE 11.5 mph - N/A   Mostly Cloudy
3:15 AM 69.8 °F - 64.4 °F 83% 29.96 in 10.0 mi NE 15.0 mph - N/A   Mostly Cloudy
3:35 AM 68.0 °F - 62.6 °F 83% 29.97 in 10.0 mi ENE 15.0 mph - N/A   Scattered Clouds
3:55 AM 66.2 °F - 62.6 °F 88% 29.96 in 10.0 mi ENE 16.1 mph - N/A   Clear
4:15 AM 66.2 °F - 62.6 °F 88% 29.96 in 10.0 mi ENE 16.1 mph - N/A   Clear
4:35 AM 66.2 °F - 62.6 °F 88% 29.96 in 10.0 mi East 16.1 mph 20.7 mph N/A   Clear
4:55 AM 66.2 °F - 60.8 °F 83% 29.95 in 10.0 mi East 13.8 mph - N/A   Clear
5:15 AM 66.2 °F - 60.8 °F 83% 29.95 in 10.0 mi East 9.2 mph - N/A   Clear
5:35 AM 66.2 °F - 60.8 °F 83% 29.93 in 10.0 mi ESE 11.5 mph - N/A   Clear
5:55 AM 66.2 °F - 60.8 °F 83% 29.93 in 10.0 mi SE 11.5 mph - N/A   Clear
6:15 AM 66.2 °F - 60.8 °F 83% 29.92 in 10.0 mi SE 11.5 mph - N/A   Clear
6:35 AM 66.2 °F - 60.8 °F 83% 29.92 in 10.0 mi ESE 12.7 mph - N/A   Clear
6:55 AM 66.2 °F - 60.8 °F 83% 29.92 in 10.0 mi ESE 9.2 mph - N/A   Clear
7:15 AM 66.2 °F - 60.8 °F 83% 29.92 in 10.0 mi SE 9.2 mph - N/A   Clear
7:35 AM 66.2 °F - 59.0 °F 78% 29.91 in 10.0 mi SE 11.5 mph - N/A   Clear
7:55 AM 68.0 °F - 60.8 °F 78% 29.89 in 10.0 mi SSE 12.7 mph - N/A   Clear
8:15 AM 69.8 °F - 60.8 °F 73% 29.89 in 10.0 mi SE 12.7 mph - N/A   Clear
8:35 AM 71.6 °F - 60.8 °F 69% 29.90 in 10.0 mi SE 11.5 mph - N/A   Clear
8:55 AM 71.6 °F - 62.6 °F 73% 29.89 in 10.0 mi SE 10.4 mph - N/A   Clear
9:15 AM 73.4 °F - 62.6 °F 69% 29.89 in 10.0 mi SE 9.2 mph - N/A   Clear
9:35 AM 73.4 °F - 64.4 °F 73% 29.88 in 10.0 mi SE 12.7 mph - N/A   Clear
9:55 AM 75.2 °F - 64.4 °F 69% 29.87 in 10.0 mi SSE 10.4 mph - N/A   Clear
10:15 AM 75.2 °F - 66.2 °F 73% 29.87 in 10.0 mi SSE 9.2 mph - N/A   Clear
10:35 AM 77.0 °F - 66.2 °F 69% 29.87 in 10.0 mi SSE 10.4 mph - N/A   Clear
10:55 AM 78.8 °F - 68.0 °F 69% 29.86 in 10.0 mi SSE 10.4 mph - N/A   Clear
11:15 AM 82.4 °F 86.3 °F 69.8 °F 66% 29.86 in 10.0 mi SSE 10.4 mph - N/A   Clear
11:35 AM 82.4 °F 86.3 °F 69.8 °F 66% 29.86 in 10.0 mi South 6.9 mph - N/A   Clear
11:55 AM 84.2 °F 88.4 °F 69.8 °F 62% 29.87 in 10.0 mi South 4.6 mph - N/A   Clear
12:15 PM 84.2 °F 89.6 °F 71.6 °F 66% 29.86 in 10.0 mi South 8.1 mph - N/A   Clear
12:35 PM 84.2 °F 89.6 °F 71.6 °F 66% 29.86 in 10.0 mi South 5.8 mph - N/A   Clear
12:55 PM 86.0 °F 91.8 °F 71.6 °F 62% 29.86 in 10.0 mi SSW 6.9 mph - N/A   Clear
1:15 PM 84.2 °F 89.6 °F 71.6 °F 66% 29.86 in 10.0 mi SSW 5.8 mph - N/A   Clear
1:35 PM 84.2 °F 88.4 °F 69.8 °F 62% 29.86 in 10.0 mi Calm Calm - N/A   Clear
1:55 PM 86.0 °F 90.4 °F 69.8 °F 58% 29.86 in 10.0 mi Calm Calm - N/A   Clear
2:15 PM 87.8 °F 93.8 °F 71.6 °F 58% 29.85 in 10.0 mi ESE 3.5 mph - N/A   Clear
2:35 PM 87.8 °F 93.8 °F 71.6 °F 58% 29.85 in 10.0 mi East 4.6 mph - N/A   Clear
2:55 PM 89.6 °F 98.2 °F 73.4 °F 59% 29.85 in 10.0 mi NE 4.6 mph - N/A   Clear
3:15 PM 89.6 °F 98.2 °F 73.4 °F 59% 29.85 in 10.0 mi East 4.6 mph - N/A   Clear
3:35 PM 89.6 °F 98.2 °F 73.4 °F 59% 29.85 in 10.0 mi East 5.8 mph - N/A   Clear
3:55 PM 89.6 °F 98.2 °F 73.4 °F 59% 29.84 in 10.0 mi East 5.8 mph - N/A   Clear
4:15 PM 89.6 °F 98.2 °F 73.4 °F 59% 29.84 in 10.0 mi East 6.9 mph - N/A   Clear
4:35 PM 91.4 °F 100.1 °F 73.4 °F 55% 29.84 in 10.0 mi East 6.9 mph - N/A   Clear
4:55 PM 91.4 °F 100.1 °F 73.4 °F 55% 29.84 in 10.0 mi East 6.9 mph - N/A   Clear
5:15 PM 91.4 °F 100.1 °F 73.4 °F 55% 29.84 in 10.0 mi East 5.8 mph - N/A   Partly Cloudy
5:35 PM 91.4 °F 100.1 °F 73.4 °F 55% 29.85 in 10.0 mi ENE 8.1 mph - N/A   Mostly Cloudy
5:55 PM 89.6 °F 98.2 °F 73.4 °F 59% 29.85 in 10.0 mi East 9.2 mph - N/A   Overcast
6:15 PM 89.6 °F 98.2 °F 73.4 °F 59% 29.85 in 10.0 mi ENE 9.2 mph - N/A   Scattered Clouds
6:35 PM 91.4 °F 100.1 °F 73.4 °F 55% 29.85 in 10.0 mi East 9.2 mph - N/A   Clear
6:55 PM 89.6 °F 98.2 °F 73.4 °F 59% 29.86 in 10.0 mi East 10.4 mph - N/A   Clear
7:15 PM 87.8 °F 93.8 °F 71.6 °F 58% 29.87 in 10.0 mi ENE 11.5 mph - N/A   Clear
7:35 PM 84.2 °F 90.9 °F 73.4 °F 70% 29.88 in 10.0 mi ENE 12.7 mph - N/A   Clear
7:55 PM 84.2 °F 89.6 °F 71.6 °F 66% 29.88 in 10.0 mi ENE 12.7 mph - N/A   Clear
8:15 PM 82.4 °F 88.2 °F 73.4 °F 74% 29.89 in 10.0 mi ENE 12.7 mph - N/A   Scattered Clouds
8:35 PM 82.4 °F 88.2 °F 73.4 °F 74% 29.89 in 10.0 mi ENE 10.4 mph - N/A   Mostly Cloudy
8:55 PM 80.6 °F 85.4 °F 73.4 °F 79% 29.89 in 10.0 mi ENE 12.7 mph - N/A   Overcast
9:15 PM 80.6 °F 85.4 °F 73.4 °F 79% 29.90 in 10.0 mi ENE 9.2 mph - N/A   Mostly Cloudy
9:35 PM 78.8 °F - 71.6 °F 78% 29.90 in 10.0 mi ENE 11.5 mph - N/A   Partly Cloudy
9:55 PM 78.8 °F - 71.6 °F 78% 29.91 in 10.0 mi ENE 12.7 mph - N/A   Clear
10:15 PM 78.8 °F - 71.6 °F 78% 29.93 in 10.0 mi ENE 10.4 mph - N/A   Clear
10:35 PM 77.0 °F - 71.6 °F 83% 29.95 in 10.0 mi ENE 11.5 mph - N/A   Scattered Clouds
10:55 PM 77.0 °F - 71.6 °F 83% 29.96 in 10.0 mi East 8.1 mph - N/A   Overcast
11:15 PM 77.0 °F - 71.6 °F 83% 29.96 in 10.0 mi East 8.1 mph - N/A   Overcast
11:35 PM 75.2 °F - 71.6 °F 89% 29.94 in 10.0 mi ENE 11.5 mph - N/A   Partly Cloudy
11:55 PM 75.2 °F - 71.6 °F 89% 29.93 in 10.0 mi NE 11.5 mph - N/A   Clear